Tracking 20712 objects as of 27-May-2020
HD Live streaming from Space Station
objects crossing your sky now

NSTAR A

Track NSTAR A now!
NSTAR A is classified as:


NORAD ID: 23651
Int'l Code: 1995-044A
Perigee: 36,021.3 km
Apogee: 36,212.7 km
Inclination: 10.6 °
Period: 1,452.6 minutes
Semi major axis: 42488 km
RCS: 15.8489 m2 (large)
Launch date: August 29, 1995
Source: Japan (JPN)
Launch site: FRENCH GUIANA (FRGUI)

Voice and TV broadcast to Japan and neighboring region.
aabbcc
Your satellite tracking list
Your tracking list is empty




NASA's NSSDC Master Catalog

Two Line Element Set (TLE):
1 23651U 95044A   20148.08261656 -.00000238 +00000-0 +00000-0 0  9992
2 23651 010.6269 035.7981 0022523 334.7419 218.5158 00.99129550089985
Source of the keplerian elements: AFSPC